Regional Weather Roundup
Issued by NWS Upton, NY

Current Version | Previous Version | Graphics & Text | Print | Product List | Glossary Off
Versions: 1 2 3 4 5 6 7 8 9 10 11 12 13 14 15 16 17 18 19 20 21 22 23 24 25 26 27 28 29 30 31 32 33 34 35 36 37 38 39 40 41 42 43 44 45 46 47 48 49 50

000
ASUS41 KOKX 042104
RWROKX

REGIONAL WEATHER ROUNDUP
NATIONAL WEATHER SERVICE NEW YORK NY
500 PM EDT TUE AUG 04 2015

NOTE: "FAIR" INDICATES FEW OR NO CLOUDS BELOW 12,000 FEET WITH NO
SIGNIFICANT WEATHER AND/OR OBSTRUCTIONS TO VISIBILITY.

NYZ071-072-176-178-NJZ106-104-042200-
NEW YORK CITY METRO AREA


CITY           SKY/WX    TMP DP  RH WIND       PRES   REMARKS
CENTRAL PARK   SUNNY     87  53  31 VRB5G25   29.87R
LAGUARDIA APRT MOSUNNY   91  52  26 W16G28    29.83S
KENNEDY INTL   MOSUNNY   92  56  29 SW21      29.84F HX  90
NEWARK/LIBERTY MOSUNNY   92  55  28 W18G29    29.84S HX  90
BRNX BOT. GARD   N/A     88  54  31 W17       29.84F
TETERBORO      MOSUNNY   89  50  26 W17G29    29.83R
$$

NYZ177-179-078>081-042200-
LONG ISLAND NEW YORK

CITY           SKY/WX    TMP DP  RH WIND       PRES   REMARKS
FARMINGDALE    MOSUNNY   88  66  48 SW15G24   29.84R HX  90
ISLIP          MOSUNNY   87  66  49 SW14      29.82S
SHIRLEY        SUNNY     85  71  63 S17       29.84F HX  90
WESTHAMPTON    SUNNY     84  70  62 SW17G26   29.85F
MONTAUK POINT    N/A     81  72  74 S12G20    29.84F
$$

NYZ052-065-067-042200-
HUDSON VALLEY

CITY           SKY/WX    TMP DP  RH WIND       PRES   REMARKS
WHITE PLAINS   MOSUNNY   87  56  34 W10G21    29.84S
NEWBURGH       MOSUNNY   86  61  42 W17G29    29.85R
MONTGOMERY     MOSUNNY   85  59  41 W10       29.84R
POUGHKEEPSIE   MOSUNNY   90  58  33 W15G22    29.82R
ALBANY         PTSUNNY   81  56  42 NW15      29.83S
$$

NJZ001-105-106-008-010-013-015-019>022-104-042200-
NEW JERSEY

CITY           SKY/WX    TMP DP  RH WIND       PRES   REMARKS
NEWARK/LIBERTY MOSUNNY   92  55  28 W18G29    29.84S HX  90
TETERBORO      MOSUNNY   89  50  26 W17G29    29.83R
CALDWELL       SUNNY     89  54  30 W12G21    29.85S
MORRISTOWN     MOSUNNY   90  55  31 W10G18    29.86R
SOMERVILLE     MOSUNNY   89  52  28 W10G20    29.85R
SUSSEX         MOSUNNY   84  57  39 W5        29.86S
ANDOVER          N/A     82  60  47 VRB7      29.88R
TRENTON        MOSUNNY   89  55  31 W10       29.86S
MILLVILLE      MOSUNNY   90  65  43 W8        29.89S HX  92
ATLANTIC CITY  MOSUNNY   92  65  40 W13       29.88S HX  94
WRIGHTSTOWN    SUNNY     89  59  36 W16       29.84S
TOMS RIVER       N/A     91  61  35 W17G25    29.87R HX  91
BELMAR         MOSUNNY   90  61  37 W15G21    29.86S
$$

PAZ047>061-062-071-042200-
EASTERN PENNSYLVANIA

CITY           SKY/WX    TMP DP  RH WIND       PRES   REMARKS
PHILADELPHIA   MOSUNNY   91  57  31 W17G24    29.88S
ALLENTOWN      SUNNY     84  56  38 W13G23    29.89R
SCRANTON       MOSUNNY   82  55  39 SW12      29.89R
$$

CTZ002-004>006-009-010-012-RIZ004-006-007-MAZ004-011-015-042200-
SOUTHERN NEW ENGLAND
 IN CT

CITY           SKY/WX    TMP DP  RH WIND       PRES   REMARKS
BRADLEY INTL   PTSUNNY   81  64  56 N10       29.80S
HARTFORD       PTSUNNY   90  55  30 SW12G24   29.78S
DANBURY        SUNNY     85  60  42 W15G24    29.85R
WTRBRY/OXFORD  MOSUNNY   84  57  39 W10G20    29.87R
BRIDGEPORT     SUNNY     87  61  41 SW13      29.81S
MERIDEN        SUNNY     91  54  28 SW7G17    29.80S
NEW HAVEN      MOSUNNY   86  59  39 SW13G22   29.81F
CHESTER        FAIR      84  64  51 SW12G18   29.83F
GROTON         SUNNY     82  69  64 SW9       29.81F
WILLIMANTIC    SUNNY     88  65  46 SW14      29.80S HX  90

 IN RI

CITY           SKY/WX    TMP DP  RH WIND       PRES   REMARKS
PROVIDENCE     SUNNY     86  66  51 SW16G24   29.81S
BLOCK ISLAND     N/A     79  72  78 SW18G24   29.85S
WESTERLY       SUNNY     83  69  62 S12       29.83F

 IN MA

CITY           SKY/WX    TMP DP  RH WIND       PRES   REMARKS
BOSTON         LGT RAIN  72  66  81 W8        29.81F
WORCESTER      MOSUNNY   72  61  68 NW8       29.85S
WESTFIELD      PTSUNNY   78  64  61 NW8       29.81F
PROVINCETOWN   PTSUNNY   77  66  69 SW18      29.82S
NANTUCKET      MOSUNNY   78  73  84 SW15      29.85F
$$

ANZ330-335-338-340-345-350-353-355-042200-
COASTAL MARINE OBSERVATIONS


STATION/POSITION TIME  SKY/WX   TEMP    WIND        PRES    VSBY  WAVE
                                AIR SEA DIR/SP/G                  HT/PER
                 (UTC)          (F)     (DEG/KT/KT) (MB)    (MI)  (FT/S)
NY HARB ENTRANCE 1950            79 78  160/  4/  6 1010.6          4/ 7
4S FIRE IS       NOT AVBL
20S FIRE ISLAND  1950            77 75  200/ 10/ 10 1011.0          6/ 8
GREAT SOUTH BAY  2000            79 81  210/ 14/ 17   N/A
23SW MTP         2050            77 75  220/ 16/ 17 1010.3          6/ 8
HUDSON CANYON    NOT AVBL
KINGS POINT      2000            85 71  300/ 13/ 18 1009.5
EXECUTION ROCKS  2000            83     230/  8/ 12   N/A
CENTRAL LI SOUND NOT AVBL
EASTERN LI SOUND 2000            77 69   CALM  /  2   N/A
ROBBINS REEF     2000            87     280/ 17/ 23 1009.2
$$


>>>>>>>>>>>>>>>>>>>>>>>>>>>> KEY <<<<<<<<<<<<<<<<<<<<<<<<<<<
>                                                          <
>     SKY/WX - SKY CONDITION/PRESENT WEATHER               <
>     TMP    - TEMPERATURE IN FAHRENHEIT                   <
>     DP     - DEWPOINT IN FAHRENHEIT                      <
>     RH     - RELATIVE HUMIDITY IN PERCENT                <
>     WIND   - DIRECTION AND SPEED IN MPH                  <
>     PRES   - MEAN SEA LEVEL PRESSURE IN INCHES OF HG     <
>     WCI    - WIND CHILL INDEX                            <
>     VSB    - VISIBILITY IN MILES                         <
>     HX     - HEAT INDEX                                  <
>     TC     - TEMPERATURE IN CELSIUS                      <
>     VRB    - VARIABLE WIND DIRECTION                     <
>                                                          <
>>>>>>>>>>>>>>>>>>>>>>>>>>>> KEY <<<<<<<<<<<<<<<<<<<<<<<<<<<





USA.gov is the U.S. government's official web portal to all federal, state and local government web resources and services.